{"data":{"norad_id":48075,"intl_designator":"2021-025AK","name":"ONEWEB-0178","alt_names":[],"object_type":"PAYLOAD","status":"ACTIVE","operator":null,"country":"UK","launch_date":"2021-03-25","launch_site_code":"VOSTO","launch_vehicle":null,"mission":null,"orbit_class":"UNKNOWN","rcs_meters":null,"size_class":null,"mass_kg":null,"dimensions":null,"purposes":["comms"],"wikipedia_slug":null,"has_3d_model":false,"image_url":null,"decayed_at":null,"tle_current":{"epoch":"2026-09-19T21:09:24.770016Z","epoch_age_seconds":71742,"freshness":"FRESH","line1":"1 48075U 21025AK  26262.88153669  .00000092  00000+0  21829-3 0  9993","line2":"2 48075  87.8911 301.3896 0001725  88.5433 271.5893 13.13469589266150","mean_motion":13.13469589,"eccentricity":0.0001725,"inclination_deg":87.8911,"raan_deg":301.3896,"arg_perigee_deg":88.5433,"mean_anomaly_deg":271.5893,"bstar":0.00021829,"rev_number":26615,"period_min":109.63329581893,"perigee_km":1208.4580693588,"apogee_km":1211.0758962328,"semimajor_km":7587.9039827958,"source":"CELESTRAK","updated_at":"2026-09-20T09:00:44.591258Z"}}}